TIROS N 1 11060U 78096A 12036.88807899 .00000078 00000-0 60781-4 0 9796 2 11060 099.0352 033.5161 0010793 151.1101 209.0673 14.17640991935485 NOAA 6 1 11416U 79057A 12036.57332570 .00000222 00000-0 98137-4 0 9814 2 11416 098.4128 036.6924 0009634 290.5690 069.4459 14.32234999699591 NOAA 9 1 15427U 84123A 12036.47630980 -.00000107 00000-0 -33656-4 0 8790 2 15427 098.5502 003.3567 0014892 164.2863 195.8788 14.15468372401224 NOAA 10 1 16969U 86073A 12036.54913331 .00000088 00000-0 53621-4 0 8060 2 16969 098.5962 067.8729 0011526 262.4097 097.5793 14.27525639320948 NOAA 11 1 19531U 88089A 12036.27511342 .00000093 00000-0 70714-4 0 8049 2 19531 098.7381 124.2067 0010480 241.7599 118.2501 14.14952539205715 NOAA 12 1 21263U 91032A 12036.52648919 .00000038 00000-0 34837-4 0 2932 2 21263 098.7384 058.7522 0013042 224.4119 135.6015 14.25475912 77653 NOAA 14 1 23455U 94089A 12036.57227572 .00000024 00000-0 35952-4 0 7765 2 23455 098.8338 121.7110 0009163 341.9905 018.0943 14.13874621882058 NOAA 15 1 25338U 98030A 12037.54856305 .00000198 00000-0 10319-3 0 1302 2 25338 098.6788 025.7768 0011324 128.2917 231.9282 14.25027718714102 NOAA 16 1 26536U 00055A 12037.51644503 .00000367 00000-0 22263-3 0 6141 2 26536 099.1139 077.4998 0011347 095.0167 265.2313 14.12703929586441 NOAA 17 1 27453U 02032A 12036.40127819 .00000234 00000-0 11867-3 0 5869 2 27453 098.3539 070.0579 0011721 181.5621 178.5532 14.24390702499852 NOAA 18 1 28654U 05018A 12036.45062263 .00000048 00000-0 51539-4 0 630 2 28654 099.0289 353.5558 0014313 165.0914 195.0691 14.11599467345837 NOAA 19 1 33591U 09005A 12036.42878303 -.00000084 00000-0 -21956-4 0 2514 2 33591 098.8522 337.9494 0014834 038.8083 321.4146 14.11288607154285